グラウアー彗星

C/2009 U5 ( Grauer )

English version
Home page
Updated on January 7, 2012

---------------------------------------------------------------------

・ プロフィール

発見日 2009年10月23日
発見光度 19.4等
発見者 A. D. Grauer (Mount Lemmon)

・ 写真集

・ 軌道要素

Epoch 2010 June 13.0 TT = JDT 2455360.5
T 2010 June 22.38359 TT                                 MPC
q   6.0943434            (2000.0)            P               Q
z  +0.0000528      Peri.   23.80519     -0.78536227     -0.49781291
 +/-0.0000021      Node   121.17239     +0.47612495     -0.86562977
e   0.9996780      Incl.   25.47036     +0.39561489     +0.05354818
From 158 observations 2009 Oct. 23-2011 Apr. 2, mean residual 0".6.

・ 光度変化

        m1 = 7.0 + 5 logΔ + 10.0 log r

---------------------------------------------------------------------

軌道要素はM.P.E.C. 2011-G58に掲載されたものです。
光度グラフはComet for Windowsで作成したものです。

---------------------------------------------------------------------

Copyright(C) Seiichi Yoshida (comet@aerith.net). All rights reserved.